Starlink 32844

operational
NORAD ID: 62820 Int'l Des: 2025-018 Owner: SPXS Country: US Constellation: starlink
LEOCIRCULAR

About Starlink 32844

Description loading...

Live Position

Loading 3D Globe...

Upcoming Passes

Altitude History

Altitude vs Time

uPlot chart will show altitude changes over time

Two-Line Element Set

1 62820U 25018Q 25353.91104593 .00024536 00000-0 83768-3 0 9999
2 62820 53.1625 320.1787 0001196 89.8309 270.2829 15.30204320 50953
Epoch: Dec 19, 2025 • Age: 8 hours

Current Status

Altitude 475.4 km
Velocity 7.63 km/s
Sub-Earth Point 22.52°N, 63.98°W
Launch Date Jan 24, 2025
Age 0.9 years
Type internet

Technical Details

Classification Payload
Mass 730.00 kg
Dry Mass 700.00 kg
Total Mass 730.00 kg
Length 0.30 m
Diameter 4.10 m
Span 29.00 m
Shape Box + pan
Manufacturer SPXS
Bus Type Starlink V2M
Phase Status In Orbit
Owner/State SPXS/US

Large Constellations

Loading constellations...